CW9300 Weather Reports


time (UTC)temp
C
wind
direction
speed
KPH
gust
KPH
rain 1hr
cm
rain 24hr
cm
rain mn
cm
humidity
%
barometer
mb
20260504045600 6 153 0.0 0.0 0.00 0.00 0.00 72 1014.1
20260504044603 6 154 0.0 0.0 0.00 0.00 0.00 72 1014.1
20260504043549 6 154 0.0 0.0 0.00 0.00 0.00 72 1014.0
20260504042515 6 150 0.0 0.0 0.00 0.00 0.00 71 1014.0
20260504041501 7 130 0.0 0.0 0.00 0.00 0.00 70 1013.9
20260504040509 7 130 0.0 0.0 0.00 0.00 0.00 69 1014.0
20260504034311 8 142 0.0 0.0 0.00 0.00 0.00 66 1014.0
20260504033312 8 143 0.0 0.0 0.00 0.00 0.00 63 1014.0
20260504032316 8 143 0.0 0.0 0.00 0.00 0.00 61 1014.0
20260504031312 9 143 1.6 4.8 0.00 0.00 0.00 58 1013.8
20260504030308 9 134 0.0 4.8 0.00 0.00 0.00 59 1013.8
20260504025327 9 66 0.0 4.8 0.00 0.00 0.00 57 1013.9
20260504024352 10 147 0.0 4.8 0.00 0.00 0.00 55 1013.9
20260504023332 10 69 0.0 0.0 0.00 0.00 0.00 53 1013.9
20260504022343 11 72 0.0 3.2 0.00 0.00 0.00 51 1013.8
20260504021355 11 78 1.6 3.2 0.00 0.00 0.00 50 1013.8
20260504015255 11 67 0.0 3.2 0.00 0.00 0.00 48 1013.8
20260504013142 12 165 1.6 4.8 0.00 0.00 0.00 45 1013.7
20260504012120 12 139 1.6 3.2 0.00 0.00 0.00 44 1013.4
20260504010021 12 152 1.6 6.4 0.00 0.00 0.00 43 1013.4
20260504005026 13 215 0.0 0.0 0.00 0.00 0.00 42 1013.3
20260504004015 13 192 0.0 0.0 0.00 0.00 0.00 42 1013.2
20260504002954 13 203 4.8 17.7 0.00 0.00 0.00 40 1013.3
20260504001947 13 242 3.2 17.7 0.00 0.00 0.00 39 1013.1
20260504000928 14 251 3.2 16.1 0.00 0.00 0.00 38 1013.1
20260503235931 14 235 4.8 24.1 0.00 0.00 0.00 37 1013.1
20260503234927 15 264 8.0 24.1 0.00 0.00 0.00 37 1013.0
20260503233904 15 237 6.4 14.5 0.00 0.00 0.00 36 1012.9
20260503232906 15 199 4.8 19.3 0.00 0.00 0.00 36 1012.9
20260503231911 15 228 6.4 19.3 0.00 0.00 0.00 36 1012.9
20260503230856 15 225 6.4 16.1 0.00 0.00 0.00 35 1012.8
20260503225842 15 233 6.4 16.1 0.00 0.00 0.00 35 1012.9
20260503223658 16 186 8.0 17.7 0.00 0.00 0.00 34 1012.8
20260503222702 15 178 11.3 20.9 0.00 0.00 0.00 35 1012.8
20260503221655 15 188 9.7 27.4 0.00 0.00 0.00 35 1013.0
20260503214325 16 305 8.0 20.9 0.00 0.00 0.00 34 1013.1
20260503213254 16 239 6.4 14.5 0.00 0.00 0.00 35 1013.0
20260503212228 16 269 11.3 27.4 0.00 0.00 0.00 34 1013.1
20260503211225 16 244 9.7 27.4 0.00 0.00 0.00 35 1013.0
20260503210231 16 250 11.3 20.9 0.00 0.00 0.00 33 1013.0
20260503204114 15 248 12.9 25.7 0.00 0.00 0.00 34 1013.1
20260503203118 16 245 8.0 24.1 0.00 0.00 0.00 33 1013.0
20260503202144 16 211 9.7 27.4 0.00 0.00 0.00 35 1013.1
20260503201149 16 258 11.3 27.4 0.00 0.00 0.00 34 1013.2
20260503200148 15 195 9.7 22.5 0.00 0.00 0.00 35 1013.2
20260503195113 15 242 11.3 20.9 0.00 0.00 0.00 34 1013.4
20260503194104 16 242 6.4 19.3 0.00 0.00 0.00 35 1013.5
20260503193041 15 267 11.3 24.1 0.00 0.00 0.00 35 1013.8
20260503192101 15 315 12.9 29.0 0.00 0.00 0.00 36 1013.8
20260503191125 15 292 12.9 29.0 0.00 0.00 0.00 35 1013.9
20260503190136 15 279 6.4 19.3 0.00 0.00 0.00 36 1013.9
20260503184025 15 248 6.4 29.0 0.00 0.00 0.00 36 1014.2
20260503181928 14 323 8.0 20.9 0.00 0.00 0.00 39 1014.3
20260503180937 13 236 9.7 29.0 0.00 0.00 0.00 38 1014.5
20260503175945 13 252 8.0 29.0 0.00 0.00 0.00 39 1014.5
20260503174942 13 250 6.4 24.1 0.00 0.00 0.00 38 1014.6
20260503173927 13 240 8.0 20.9 0.00 0.00 0.00 39 1014.8
20260503172906 13 230 6.4 25.7 0.00 0.00 0.00 39 1014.8
20260503171835 13 273 9.7 25.7 0.00 0.00 0.00 38 1015.0
20260503150254 11 272 4.8 16.1 0.00 0.00 0.00 40 1016.2
20260503140226 9 257 4.8 16.1 0.00 0.00 0.00 49 1016.2
20260503130949 8 190 4.8 16.1 0.00 0.00 0.00 57 1016.5
20260503110646 0 296 0.0 0.0 0.00 0.00 0.00 83 1016.2
20260503081516 2 296 0.0 0.0 0.00 0.00 0.00 72 1014.8
20260503080541 2 296 0.0 0.0 0.00 0.00 0.00 71 1014.9
20260503072426 3 296 0.0 0.0 0.00 0.00 0.00 68 1014.7
20260503071435 3 298 0.0 0.0 0.00 0.00 0.00 68 1014.7
20260503070402 4 298 0.0 0.0 0.00 0.00 0.00 67 1014.6
20260503054432 5 305 0.0 4.8 0.00 0.00 0.00 64 1014.5
20260503053430 5 286 0.0 8.0 0.00 0.00 0.00 63 1014.4
20260503052430 6 285 1.6 8.0 0.00 0.00 0.00 63 1014.5
20260503051442 6 313 1.6 4.8 0.00 0.00 0.00 63 1014.4
20260503050500 6 310 1.6 11.3 0.00 0.00 0.00 61 1014.4